Wind_Speed
19 19 18 18 18 18 18 18 18 18 18 18 18 18 18 18 18 18 18 18 19 19 20 20 21 21 22 22 22 23 23 24 24 24 24 24 25 26 27 28 28 28 28 27 26 26 27 27 27 25 23 23 24 25 25 26 26 26 26 25 25 25 25 25 25 25 25 24 24
18 18 18 18 18 18 17 17 17 17 17 17 17 17 18 18 18 18 18 19 19 19 20 20 21 21 22 22 22 23 23 23 23 24 24 24 24 25 27 27 28 29 29 27 26 26 26 27 27 25 23 22 22 23 25 26 26 26 26 25 25 25 24 24 25 25 25 25 24
18 18 18 17 17 17 16 16 16 16 16 16 17 17 17 17 17 18 18 19 19 20 20 20 20 21 21 22 22 23 23 23 23 23 24 24 24 25 27 28 29 30 30 28 26 26 26 27 26 25 24 23 22 22 23 25 26 26 25 25 25 24 24 24 24 24 24 24 24
18 17 17 17 16 16 15 15 15 15 15 16 16 17 17 17 17 18 18 19 20 20 20 20 20 21 21 22 22 23 23 23 23 23 24 24 25 26 27 28 30 30 31 30 28 27 26 26 25 24 23 23 23 23 23 24 25 26 26 25 24 23 23 23 23 23 23 23 23
17 17 17 16 16 15 15 15 15 15 16 16 17 17 17 16 17 18 19 19 20 20 20 20 21 21 22 22 23 23 23 23 23 23 24 24 25 26 27 28 30 30 31 31 30 28 27 26 25 24 23 23 22 22 23 25 26 27 27 26 24 23 22 22 23 23 23 23 23
17 17 17 16 16 15 15 15 15 15 15 16 16 16 16 16 16 17 19 19 20 21 21 21 21 22 22 22 23 23 24 24 24 24 24 24 25 26 27 28 29 30 30 30 30 29 28 27 25 24 23 23 23 22 23 25 27 27 27 26 25 24 24 24 24 24 24 24 23
16 16 16 16 16 16 15 15 15 15 16 16 16 16 16 16 16 17 18 19 20 21 21 22 22 22 23 23 23 24 24 24 24 24 24 24 25 25 26 27 28 29 29 29 29 29 29 27 25 25 25 24 23 23 23 25 26 27 28 27 25 25 25 25 26 26 25 25 24
16 16 16 16 16 16 16 15 15 16 16 16 16 16 16 16 17 17 18 19 20 21 21 22 22 23 23 23 24 24 24 24 25 25 25 25 25 25 26 27 27 28 29 29 28 28 28 27 26 26 26 26 25 24 24 25 26 26 27 27 26 26 27 28 28 28 27 26 26
16 16 16 16 16 16 16 16 16 16 16 16 16 16 16 16 17 17 18 19 20 20 21 22 22 23 23 23 24 24 24 24 25 25 26 26 26 26 26 26 27 28 28 28 28 27 27 26 26 26 27 26 26 25 25 25 25 26 26 26 26 27 27 28 28 28 28 28 27
16 16 16 16 16 16 16 16 16 16 16 17 17 17 17 17 17 18 18 19 20 20 21 21 22 23 23 24 24 24 24 24 25 25 26 27 27 27 27 27 27 27 28 28 28 27 26 25 25 26 26 26 26 25 25 25 25 25 25 25 26 26 27 27 27 28 28 28 28
15 15 15 16 16 16 16 16 16 16 16 17 17 18 18 18 18 18 19 19 20 20 21 21 22 23 23 24 24 24 24 24 25 25 26 27 27 28 28 27 26 26 27 27 27 27 26 25 25 24 24 24 25 25 25 25 25 25 25 25 25 26 26 26 26 27 27 27 27
15 15 15 15 16 16 16 16 16 16 17 17 17 18 19 19 19 19 20 20 20 21 21 21 22 22 23 24 24 24 25 25 25 25 25 26 27 27 28 27 26 26 26 26 27 26 26 25 24 23 23 23 23 24 24 24 24 25 25 25 25 25 25 26 26 26 26 26 26
14 15 15 15 16 16 16 16 17 17 17 17 18 18 19 19 20 20 20 21 21 21 22 22 22 22 23 24 24 25 25 25 25 25 25 25 26 27 27 27 26 25 25 25 25 26 25 25 24 23 22 22 22 22 23 23 23 24 24 24 24 25 25 26 26 26 26 26 26
14 14 15 15 15 16 16 17 17 17 18 18 18 18 19 20 20 20 21 21 22 22 22 22 22 22 23 23 24 25 25 25 25 25 24 24 25 25 26 27 26 25 24 24 24 25 25 25 24 23 22 21 21 21 21 22 22 22 23 23 23 24 25 25 26 26 26 27 26
14 14 14 15 15 16 16 17 17 17 18 18 18 18 19 19 20 20 20 21 22 22 22 23 23 23 23 24 24 25 25 25 25 24 24 24 24 25 25 26 25 24 23 23 23 23 24 24 24 22 21 20 20 20 20 21 21 21 21 22 22 23 24 25 26 26 27 27 27
14 14 14 15 15 16 16 16 17 17 18 18 18 18 19 19 19 20 20 21 21 22 22 23 23 23 24 24 24 25 25 25 24 24 23 23 24 24 25 25 25 24 23 22 22 22 23 24 23 22 21 20 19 19 19 20 20 20 21 21 21 22 23 24 25 26 27 27 27
13 14 14 15 15 15 16 16 17 17 17 18 18 18 19 19 20 20 20 20 21 22 22 23 23 24 24 24 24 25 25 25 24 24 23 23 24 24 24 25 24 23 22 21 21 21 22 23 23 22 21 19 18 18 18 18 19 20 20 20 21 21 22 24 25 26 27 28 28
13 13 14 14 15 15 15 16 16 17 17 18 18 18 19 19 20 20 20 20 21 21 22 23 23 23 24 24 24 25 25 25 25 24 23 23 24 24 24 24 24 23 22 20 20 20 20 21 22 22 21 19 18 17 17 18 18 19 19 20 20 21 22 23 25 26 27 28 28
12 13 13 14 14 15 15 16 16 17 17 18 18 18 19 19 20 20 20 20 20 21 22 22 23 23 24 24 24 25 25 25 25 24 23 23 23 24 24 24 24 23 22 20 19 19 19 20 22 22 21 20 18 17 17 17 17 18 19 20 20 21 22 23 24 25 27 27 28
12 12 13 13 14 15 15 15 16 16 17 17 18 18 19 19 19 20 20 20 21 21 21 22 23 23 24 24 24 24 24 24 24 24 24 24 24 24 24 24 24 23 22 21 20 19 19 20 21 22 22 20 18 17 17 18 18 18 19 20 20 21 22 23 24 25 26 27 28
12 12 13 13 14 14 15 15 16 16 17 17 18 18 18 19 19 19 20 20 20 21 21 22 22 23 23 24 24 24 24 24 24 23 23 24 24 24 24 24 23 23 22 21 21 20 19 20 22 23 23 20 17 16 17 19 19 20 20 20 20 20 21 22 23 25 26 27 27
11 12 12 13 13 14 14 15 15 16 16 17 17 17 18 18 19 19 19 20 20 20 21 21 22 22 23 23 23 24 23 23 23 23 23 23 23 24 23 23 23 23 23 22 22 21 20 21 23 24 23 20 17 16 18 20 22 22 21 20 19 19 20 22 23 25 26 27 27
11 11 12 12 13 13 14 14 15 15 16 16 17 17 18 18 19 19 19 19 19 20 20 20 21 21 22 22 22 23 23 23 23 22 22 23 23 23 23 23 23 23 23 23 22 21 21 22 25 25 24 20 18 18 20 23 24 23 21 19 18 18 20 21 23 25 26 26 26
10 11 11 12 13 13 13 14 14 15 15 16 17 17 18 18 18 19 19 19 19 19 20 20 20 21 21 21 21 22 22 23 23 23 23 22 22 22 23 22 23 23 23 22 22 21 21 22 25 26 24 21 19 20 23 24 24 23 21 18 17 18 20 22 24 25 26 26 25
10 10 11 11 12 13 13 14 14 15 15 16 17 17 18 18 18 19 19 19 19 19 20 20 20 20 21 21 21 22 22 23 23 24 23 23 22 22 22 22 22 22 22 22 21 21 20 21 23 24 23 21 21 22 23 23 23 22 19 17 16 17 20 22 24 26 26 26 25
10 10 10 11 12 12 13 13 14 14 15 16 16 17 17 18 18 19 19 19 19 20 20 20 20 21 21 21 22 22 22 23 23 23 23 23 23 22 22 21 21 21 21 21 21 20 20 21 23 23 23 21 21 22 22 21 22 21 18 16 15 17 19 21 23 25 27 27 26
9 9 10 10 11 12 12 13 13 14 14 15 16 16 17 18 18 19 19 19 20 20 20 21 21 21 21 21 22 22 22 22 22 22 23 23 23 22 22 21 21 21 21 20 20 20 20 21 22 23 23 22 22 21 21 21 22 21 19 16 15 16 17 19 22 25 27 27 26
9 9 9 10 10 11 12 12 13 13 14 15 15 16 17 17 18 19 19 19 20 21 21 21 21 21 21 21 21 22 22 22 22 22 22 22 22 22 22 21 21 21 20 19 19 19 20 21 22 23 23 24 23 23 22 21 23 23 21 17 15 15 16 19 22 24 26 27 27
9 9 9 9 10 11 11 12 12 13 14 14 15 16 16 17 18 18 19 20 20 21 21 22 22 22 21 21 21 21 21 21 21 22 22 22 22 22 22 22 22 21 19 18 18 19 20 21 22 23 24 24 25 25 23 22 23 25 23 19 16 15 16 18 21 24 26 27 27
9 9 9 9 10 10 11 11 12 13 13 14 15 15 16 17 18 18 19 20 20 21 21 21 21 21 21 21 21 21 21 21 21 21 22 22 23 23 23 23 22 21 19 18 18 19 20 21 22 23 24 25 26 25 23 21 23 25 24 20 16 15 17 19 22 24 25 26 27
9 9 9 9 9 10 11 11 12 13 13 14 15 15 16 17 18 19 19 20 20 20 20 21 21 21 21 21 21 21 21 21 21 21 22 22 23 23 23 23 23 21 20 19 18 19 21 22 23 24 25 26 26 25 22 20 21 23 22 18 16 16 17 19 22 24 25 26 26
8 8 9 9 9 10 11 11 12 12 13 14 14 15 16 17 17 18 19 19 20 20 21 21 21 22 22 22 21 21 21 21 21 21 22 22 23 23 24 24 23 22 21 20 20 20 22 23 23 25 26 27 26 25 23 21 20 20 18 16 15 15 17 20 23 25 26 26 26
8 9 9 9 9 10 11 11 12 12 13 14 14 15 16 17 17 18 19 19 20 21 21 21 22 22 22 22 22 21 21 21 21 21 22 22 23 23 23 23 23 22 21 21 21 21 22 23 24 25 26 27 28 28 27 23 19 16 14 13 14 15 17 20 23 25 26 26 26
8 8 9 9 10 10 11 11 12 12 13 14 14 15 16 17 18 18 19 20 20 21 21 21 21 22 22 22 22 21 21 20 21 21 22 22 22 23 23 23 23 22 21 21 21 21 21 22 23 24 25 27 29 31 31 26 18 13 12 13 13 14 16 19 22 24 25 26 25
8 8 9 9 10 10 11 12 12 13 13 14 14 15 16 17 17 18 19 20 20 20 21 21 21 21 22 22 21 21 20 20 20 21 21 21 22 22 23 23 22 21 21 21 21 20 21 21 22 23 24 26 29 32 32 27 18 13 12 13 14 15 16 17 20 22 23 24 24
8 8 9 9 10 10 11 12 12 13 13 14 15 16 16 17 17 18 19 20 20 21 21 21 22 22 22 22 21 21 20 19 20 20 21 21 21 22 22 22 22 21 21 21 21 21 21 21 22 23 24 25 27 30 31 28 21 15 13 14 14 16 17 17 18 19 21 22 23
8 8 9 9 10 10 11 12 12 13 13 14 15 16 17 17 18 18 19 20 21 21 22 22 22 22 22 22 22 21 19 19 19 19 20 20 20 21 21 22 21 21 21 21 22 22 23 23 24 24 24 24 25 27 30 29 23 18 15 14 15 16 18 19 18 18 19 20 21
8 8 9 9 10 10 11 12 13 13 14 14 15 16 17 17 18 18 19 20 21 22 22 23 23 23 23 23 22 21 19 18 18 18 19 20 20 20 21 21 21 22 22 23 24 24 25 26 26 26 26 25 25 26 28 28 25 21 18 16 16 17 19 19 19 18 18 19 19
8 8 9 9 10 11 11 12 13 13 14 15 15 16 17 18 18 19 19 20 21 22 23 23 23 23 23 23 23 21 20 18 17 18 18 19 20 20 20 21 22 23 23 24 26 26 27 27 27 27 27 27 27 27 28 28 27 24 20 18 17 17 18 20 20 18 17 18 18
8 8 9 9 10 11 11 12 12 13 14 15 16 16 17 18 18 19 20 21 21 22 23 24 24 24 24 23 23 21 20 18 17 17 18 19 19 20 20 21 23 24 25 26 27 27 27 26 26 26 27 27 27 27 27 28 28 25 22 19 17 17 19 20 20 18 17 17 17
8 8 9 9 10 11 11 12 12 13 13 14 15 16 17 18 19 19 20 21 21 22 23 24 24 24 24 23 22 21 19 18 18 18 18 19 19 20 20 22 23 25 26 27 27 27 26 25 25 25 26 27 26 26 26 26 27 25 22 19 18 18 19 20 20 18 16 16 17
Wind_Direction
342 342 341 339 338 339 341 343 345 347 347 344 340 337 335 334 332 331 330 329 327 325 325 326 326 327 328 328 327 326 327 329 330 331 332 333 333 333 334 335 337 338 341 344 344 340 336 334 336 337 336 334 333 334 337 340 343 345 345 344 344 343 343 343 343 341 338 334 330
342 341 340 338 337 337 339 341 343 344 343 341 338 335 334 333 331 329 328 327 326 325 323 323 323 323 324 325 326 327 329 330 331 331 332 333 334 334 335 336 337 340 343 346 345 341 337 336 337 337 337 336 335 334 334 336 339 340 341 343 344 345 347 347 347 346 343 339 336
341 341 339 337 336 335 337 338 339 340 339 337 335 334 334 332 330 327 326 326 324 323 322 320 319 320 321 323 326 328 330 331 331 331 332 333 335 336 336 336 338 341 345 347 346 343 340 339 338 338 338 338 337 335 334 335 336 337 338 339 341 342 343 344 345 345 345 344 343
341 340 339 336 334 333 333 334 335 335 335 334 334 334 334 332 329 325 323 323 322 321 320 318 317 317 320 324 326 328 330 330 329 330 332 335 337 337 337 337 338 341 344 346 347 346 345 344 342 340 338 338 337 336 335 335 336 337 337 338 338 338 338 338 340 341 343 345 347
340 340 338 336 333 331 330 331 332 332 332 332 332 333 333 330 326 322 321 320 320 320 319 316 316 317 320 324 326 327 328 329 329 330 332 334 337 338 338 338 338 340 342 344 346 348 348 347 344 341 339 338 337 336 335 336 337 338 338 339 338 337 336 336 336 338 340 344 346
340 339 338 337 334 332 330 329 329 329 328 329 330 331 329 326 322 320 319 319 320 319 318 316 317 319 321 323 324 325 326 326 327 328 329 332 334 336 337 337 338 338 340 341 343 346 348 348 345 342 340 339 337 336 337 338 339 340 341 340 339 337 336 335 335 336 338 341 343
339 339 339 337 336 333 330 328 326 325 325 325 327 328 326 323 320 318 318 319 319 319 319 319 319 321 321 322 322 323 323 324 324 325 326 328 331 333 335 336 336 337 338 339 340 343 346 347 346 344 343 342 340 338 338 340 341 343 344 343 340 338 337 336 337 337 337 339 341
338 339 340 339 338 335 332 328 325 323 322 322 323 324 323 321 319 318 318 318 319 319 320 321 321 322 322 321 321 321 321 322 322 323 323 324 327 330 333 334 335 336 337 338 338 340 342 345 345 345 345 345 343 342 341 342 343 345 346 345 343 341 340 340 341 340 338 339 341
338 340 341 341 340 338 334 330 325 321 319 318 319 319 319 318 317 317 317 317 318 320 321 322 323 323 322 321 321 321 322 322 321 321 321 322 323 326 329 332 334 336 337 338 337 337 338 341 342 345 346 346 346 346 345 345 345 346 346 346 345 344 344 343 342 341 340 341 341
339 340 341 342 341 339 336 331 327 322 318 316 315 314 313 313 314 314 315 315 317 319 321 322 323 323 323 323 323 323 323 322 321 321 320 320 321 323 325 329 332 334 336 337 337 336 335 336 339 343 345 346 346 347 347 348 347 346 347 347 346 346 346 345 344 343 343 342 342
339 341 341 342 341 340 337 334 330 325 321 317 314 312 310 310 310 310 311 312 314 317 319 321 322 323 324 325 325 325 325 324 322 321 320 320 319 320 322 325 329 332 334 336 337 336 334 332 334 338 342 344 345 345 346 347 346 346 346 347 347 346 346 346 346 345 344 343 342
339 340 341 341 341 340 339 337 334 331 326 321 317 313 311 309 308 307 308 309 311 313 316 318 320 322 324 325 326 326 325 325 324 323 321 320 319 319 320 322 325 328 331 333 335 335 333 330 330 333 337 342 343 344 344 344 344 344 345 346 346 347 347 347 347 346 345 344 342
338 340 341 341 341 340 340 339 338 336 333 328 324 319 315 311 309 307 306 307 308 310 312 315 318 321 323 324 325 325 326 326 326 325 323 321 320 319 319 321 323 325 327 329 331 333 332 329 327 328 332 338 341 343 343 342 342 343 344 345 346 347 347 348 348 348 347 345 343
337 340 341 341 341 340 340 340 339 338 336 333 330 325 320 316 313 309 307 306 306 308 310 313 316 319 321 322 323 324 325 325 325 325 323 322 321 320 321 322 323 324 325 326 328 329 330 329 326 325 328 333 338 341 342 341 341 342 343 344 346 347 348 349 349 349 348 345 343
337 339 340 340 340 340 341 340 339 339 338 336 334 330 326 322 319 314 310 308 307 308 309 311 314 316 319 321 322 323 324 324 324 324 323 323 323 322 323 324 325 325 325 324 324 326 327 328 326 324 324 328 334 338 340 340 340 340 342 344 346 348 349 350 351 350 349 347 345
336 338 339 339 340 340 340 339 339 338 338 337 336 334 331 328 325 321 317 313 311 310 310 311 313 315 317 319 321 322 323 323 323 323 323 323 324 324 325 327 329 329 327 325 323 323 325 327 327 324 322 324 329 335 339 339 339 340 341 343 346 348 350 352 352 352 351 349 347
335 337 338 339 339 339 339 338 338 338 338 338 338 336 335 332 330 327 323 320 316 313 312 312 313 314 316 319 320 321 321 322 322 322 322 323 325 326 328 330 332 333 331 327 324 323 324 327 327 325 322 321 326 332 337 339 339 339 340 343 346 349 352 353 353 353 352 351 348
335 336 337 338 338 338 337 337 337 338 339 339 339 338 337 335 333 331 328 325 321 317 315 314 315 315 316 318 319 320 320 321 321 321 321 323 326 328 330 332 334 335 334 330 326 324 325 328 329 327 322 319 322 329 336 339 339 339 340 344 348 351 353 353 353 352 352 351 348
333 335 336 337 337 337 337 337 337 338 339 339 339 339 338 337 335 333 331 328 325 321 318 317 316 316 317 317 318 319 319 320 320 321 321 323 326 328 331 334 336 336 336 334 330 328 328 329 330 328 322 317 319 326 335 340 340 340 341 345 350 352 353 352 351 351 351 350 348
332 334 335 336 336 336 336 337 338 339 340 340 340 340 339 338 336 335 333 330 328 325 321 319 318 317 317 317 317 318 318 319 320 320 321 323 325 327 330 334 336 337 337 336 334 331 330 330 331 328 322 314 314 323 334 341 343 343 345 348 350 352 351 350 350 350 349 349 347
330 333 334 335 335 336 336 337 339 340 340 340 340 340 339 339 338 336 334 332 330 327 324 321 319 318 317 317 317 317 318 319 320 321 322 322 324 326 330 333 335 337 338 338 337 333 331 331 333 328 319 309 309 321 335 344 347 347 347 348 349 349 348 348 349 349 349 348 347
329 331 332 333 334 335 336 337 339 340 341 341 340 340 340 339 339 337 336 334 331 329 326 324 321 319 318 318 317 317 318 320 321 322 322 322 323 326 329 333 334 337 338 339 337 333 332 333 334 326 314 303 305 320 336 346 348 348 346 345 346 346 347 349 350 350 349 347 346
326 329 331 332 333 334 335 337 339 340 341 341 341 341 340 340 339 338 337 335 333 331 328 326 324 322 321 320 319 319 320 322 323 323 323 322 323 326 329 332 333 335 337 337 335 333 334 335 331 321 309 300 303 318 332 341 344 344 343 342 343 346 348 350 351 350 349 347 345
324 327 329 331 332 333 335 337 339 341 342 342 342 342 341 340 339 339 338 336 335 333 331 329 327 325 324 323 323 324 325 325 325 325 325 324 325 327 329 331 332 333 334 334 333 333 333 332 325 317 308 303 307 316 326 333 338 340 340 341 342 346 349 351 351 350 349 347 346
322 326 328 330 331 333 335 337 340 343 343 343 342 342 341 340 340 339 339 338 337 336 334 332 331 330 329 329 329 329 328 327 326 325 326 326 327 328 329 329 330 331 332 333 332 330 327 325 321 316 312 308 310 314 320 326 332 337 340 340 341 343 344 346 348 348 348 348 348
320 324 327 329 330 332 335 338 341 343 343 342 342 341 341 341 341 341 341 341 340 339 337 336 335 335 335 335 334 332 330 328 326 326 326 326 327 328 328 329 329 330 332 332 329 326 323 321 321 319 314 309 308 310 315 322 332 338 342 342 340 337 336 337 341 345 347 349 350
317 321 324 326 329 331 335 338 340 342 342 341 341 341 341 341 342 342 343 342 342 341 340 340 340 340 340 338 335 332 330 329 328 327 326 326 326 327 328 329 329 330 331 331 327 323 321 321 323 322 317 309 304 303 308 319 333 341 344 342 337 331 328 329 335 340 345 349 352
314 318 322 325 328 331 334 337 340 341 341 341 340 340 341 342 343 343 344 344 344 344 344 345 345 344 341 338 335 333 332 331 330 328 327 327 326 327 329 329 330 331 331 330 325 321 319 320 322 323 320 312 303 299 302 315 333 343 345 340 332 324 321 324 331 337 343 347 351
312 316 320 324 327 330 333 336 338 340 339 339 339 339 340 342 343 344 344 346 347 348 348 348 347 345 343 340 338 336 335 334 332 330 329 328 329 330 330 331 332 333 333 330 326 321 320 320 321 322 320 314 306 300 300 313 332 342 343 338 329 320 316 320 328 335 340 345 349
310 315 319 323 326 328 330 334 336 337 337 337 338 339 340 342 343 345 346 348 349 350 349 348 348 347 346 344 342 340 338 336 335 333 331 331 331 332 333 333 335 336 336 333 329 324 321 321 321 322 321 316 308 302 302 314 332 340 341 337 327 316 311 316 324 331 337 342 346
309 313 318 322 324 326 328 331 333 334 335 336 337 339 340 342 344 345 345 346 347 348 348 349 349 349 347 346 344 343 341 339 338 336 335 334 334 334 335 336 338 340 340 337 333 328 323 321 321 322 321 318 310 304 306 318 333 339 339 335 324 313 309 313 320 328 334 339 343
307 312 317 320 323 324 326 329 331 332 333 335 337 339 341 342 343 343 343 343 345 347 348 350 350 349 348 347 346 344 343 342 341 340 339 338 337 337 338 339 341 343 343 340 337 332 326 322 321 322 322 321 315 311 312 320 331 337 337 331 321 313 310 312 318 324 331 336 340
306 311 315 319 321 322 324 326 328 330 332 334 337 339 340 341 341 341 341 343 344 347 349 350 349 348 348 347 346 345 344 344 344 343 343 341 340 339 339 341 343 345 345 343 340 335 330 325 323 323 324 323 321 318 318 321 326 330 328 323 320 316 313 314 317 321 327 332 337
305 309 313 316 319 321 322 324 326 328 331 334 337 339 340 339 339 340 341 342 343 345 347 348 348 348 348 347 346 344 344 344 345 345 345 345 343 342 341 342 345 346 346 343 340 337 333 329 326 325 325 325 323 322 321 319 318 314 311 312 316 318 318 318 318 320 323 328 333
304 308 313 316 318 320 321 322 324 327 330 334 337 338 338 338 338 339 340 341 342 343 344 346 346 347 347 346 345 344 342 343 344 346 346 346 345 344 343 344 346 347 346 343 339 336 333 331 328 327 326 325 324 322 321 317 309 299 298 305 314 321 323 321 319 318 320 323 328
303 308 313 316 318 319 319 321 323 327 331 335 337 337 337 337 338 338 338 339 340 341 343 344 346 347 347 346 345 344 343 342 343 345 346 347 345 344 344 346 348 348 347 344 340 337 335 333 331 329 327 325 324 323 320 316 306 295 292 301 311 320 325 326 323 319 317 319 323
303 308 313 316 317 317 318 319 323 328 332 335 337 337 337 337 337 337 338 338 339 340 341 343 345 346 347 347 346 344 343 342 341 343 345 346 344 343 343 345 347 349 349 347 345 344 342 340 336 331 327 326 325 324 322 317 307 296 290 295 306 318 327 332 330 323 318 318 320
302 307 311 314 315 316 317 319 324 329 333 336 336 337 336 336 336 336 338 338 338 338 339 341 342 344 345 345 344 343 343 342 341 341 342 343 342 341 341 342 345 349 351 352 352 351 348 343 337 332 329 326 325 325 324 320 312 302 292 292 302 316 329 338 337 330 322 320 320
302 307 310 312 314 316 318 322 326 331 334 335 336 336 335 335 336 337 338 338 338 338 337 338 340 342 343 343 342 342 342 342 342 341 340 340 340 340 340 341 344 348 352 354 353 350 346 341 338 335 331 327 326 326 327 325 318 308 298 294 300 314 329 338 339 334 327 324 323
302 306 310 312 314 317 320 325 329 332 334 334 335 335 335 335 336 338 339 338 337 337 336 336 338 340 341 340 340 340 340 341 343 342 340 339 339 340 341 341 342 345 347 348 346 343 341 340 340 339 337 333 331 330 329 327 321 313 304 298 301 313 326 335 336 334 330 328 328
301 305 309 311 314 318 321 326 330 332 333 334 334 334 335 337 338 338 338 337 337 336 335 335 336 338 339 339 338 338 338 341 343 343 341 340 340 341 342 341 340 340 340 340 339 337 337 339 340 342 343 343 341 338 335 330 326 319 311 304 306 315 324 329 331 331 331 331 331
Height
1547 1545 1544 1543 1542 1540 1539 1538 1537 1535 1534 1533 1532 1531 1530 1529 1527 1526 1525 1524 1522 1521 1520 1518 1517 1515 1514 1513 1512 1510 1509 1508 1506 1505 1504 1502 1500 1499 1496 1495 1493 1490 1488 1486 1485 1483 1481 1479 1476 1474 1472 1470 1469 1467 1465 1463 1461 1459 1457 1455 1454 1452 1450 1448 1446 1444 1443 1441 1440
1545 1544 1543 1542 1541 1540 1538 1537 1536 1535 1534 1533 1532 1530 1529 1528 1527 1525 1524 1523 1522 1520 1519 1518 1516 1515 1514 1513 1511 1510 1508 1507 1505 1504 1503 1501 1500 1498 1496 1494 1492 1490 1488 1486 1484 1483 1480 1478 1476 1474 1472 1470 1469 1467 1465 1463 1461 1459 1457 1455 1453 1451 1450 1448 1446 1444 1443 1441 1440
1545 1543 1542 1541 1540 1538 1537 1536 1535 1534 1533 1532 1531 1530 1528 1527 1526 1525 1524 1522 1521 1520 1519 1517 1516 1515 1513 1512 1510 1509 1508 1506 1505 1504 1502 1500 1499 1497 1495 1494 1492 1490 1488 1486 1484 1482 1480 1478 1476 1474 1471 1470 1468 1466 1465 1463 1461 1459 1457 1455 1453 1451 1450 1448 1446 1445 1443 1441 1440
1544 1543 1541 1540 1539 1538 1536 1535 1534 1533 1532 1531 1530 1529 1528 1526 1525 1524 1523 1521 1520 1519 1518 1517 1515 1514 1512 1511 1510 1508 1507 1506 1504 1503 1501 1500 1498 1496 1495 1493 1491 1489 1487 1486 1484 1482 1480 1478 1476 1474 1472 1470 1468 1466 1464 1462 1460 1459 1457 1455 1453 1451 1450 1448 1446 1445 1443 1441 1440
1543 1542 1540 1540 1538 1537 1536 1535 1533 1532 1531 1530 1529 1528 1527 1526 1525 1523 1522 1521 1520 1519 1517 1516 1515 1513 1512 1510 1509 1507 1506 1505 1503 1502 1500 1499 1497 1496 1494 1492 1490 1489 1487 1485 1483 1481 1479 1477 1475 1474 1472 1470 1468 1466 1464 1462 1460 1458 1456 1455 1453 1451 1450 1448 1446 1445 1443 1441 1440
1542 1540 1540 1538 1537 1536 1535 1534 1533 1531 1530 1530 1528 1527 1526 1525 1524 1523 1522 1520 1519 1518 1516 1515 1514 1512 1511 1510 1508 1507 1505 1504 1502 1501 1500 1498 1496 1495 1493 1491 1490 1488 1486 1485 1483 1481 1479 1477 1475 1473 1471 1470 1468 1466 1464 1462 1460 1458 1455 1454 1452 1451 1449 1447 1446 1444 1442 1441 1439
1541 1540 1539 1537 1536 1535 1534 1533 1531 1530 1530 1528 1527 1526 1525 1524 1523 1522 1521 1520 1518 1517 1515 1514 1513 1511 1510 1509 1507 1506 1504 1503 1501 1500 1499 1497 1495 1494 1492 1491 1489 1488 1486 1484 1483 1481 1479 1477 1475 1473 1471 1469 1467 1465 1464 1462 1460 1457 1455 1454 1452 1450 1449 1447 1445 1443 1442 1440 1439
1540 1539 1538 1536 1535 1534 1533 1532 1530 1530 1528 1527 1526 1525 1525 1523 1522 1521 1520 1519 1517 1516 1515 1513 1512 1510 1509 1508 1506 1505 1503 1502 1500 1499 1497 1496 1495 1493 1491 1490 1488 1487 1485 1484 1482 1480 1479 1477 1475 1473 1471 1469 1467 1465 1463 1461 1459 1457 1455 1453 1452 1450 1448 1446 1445 1443 1441 1439 1438
1539 1538 1537 1535 1534 1533 1532 1531 1530 1529 1527 1526 1525 1525 1524 1522 1521 1520 1519 1518 1516 1515 1514 1512 1511 1510 1508 1507 1505 1504 1502 1501 1499 1498 1496 1495 1493 1492 1490 1489 1487 1486 1485 1483 1482 1480 1479 1477 1475 1473 1470 1469 1466 1465 1463 1461 1459 1457 1455 1453 1452 1450 1448 1446 1445 1443 1441 1439 1437
1538 1537 1535 1534 1533 1532 1531 1530 1529 1528 1527 1525 1525 1524 1523 1521 1520 1519 1518 1517 1515 1514 1513 1511 1510 1509 1507 1505 1504 1503 1501 1500 1498 1497 1495 1494 1492 1491 1489 1488 1486 1485 1484 1482 1481 1479 1478 1476 1474 1472 1470 1468 1466 1464 1462 1460 1459 1457 1455 1453 1452 1450 1448 1446 1445 1443 1440 1439 1436
1537 1536 1535 1534 1532 1531 1530 1529 1528 1527 1525 1525 1523 1522 1521 1520 1519 1518 1517 1515 1514 1513 1512 1510 1509 1508 1506 1505 1503 1501 1500 1499 1497 1495 1494 1493 1491 1490 1488 1487 1486 1484 1483 1481 1480 1479 1477 1475 1474 1472 1470 1468 1466 1464 1462 1460 1458 1456 1455 1453 1451 1450 1448 1446 1444 1442 1440 1438 1436
1536 1535 1534 1533 1531 1530 1529 1528 1527 1526 1525 1523 1522 1521 1520 1519 1518 1517 1516 1515 1513 1512 1511 1510 1508 1506 1505 1503 1502 1500 1499 1498 1496 1495 1493 1491 1490 1489 1487 1486 1485 1483 1482 1480 1479 1478 1476 1475 1473 1471 1469 1467 1465 1463 1461 1460 1458 1456 1454 1453 1451 1449 1447 1446 1444 1442 1440 1438 1436
1535 1534 1533 1531 1530 1530 1528 1527 1526 1525 1524 1522 1521 1520 1519 1518 1517 1516 1515 1513 1512 1511 1510 1508 1507 1505 1504 1502 1501 1500 1498 1496 1495 1493 1492 1490 1489 1487 1486 1485 1483 1482 1481 1480 1478 1477 1475 1473 1472 1470 1468 1467 1465 1463 1461 1459 1457 1455 1454 1452 1450 1449 1447 1445 1443 1441 1440 1438 1436
1534 1533 1532 1531 1530 1529 1527 1526 1525 1524 1522 1521 1520 1519 1518 1517 1515 1515 1513 1512 1511 1510 1508 1507 1505 1504 1503 1501 1500 1498 1497 1495 1494 1492 1491 1489 1488 1486 1485 1483 1482 1481 1480 1479 1477 1476 1474 1473 1471 1469 1468 1466 1464 1463 1461 1459 1457 1455 1454 1452 1450 1448 1446 1445 1443 1441 1439 1437 1435
1533 1532 1531 1530 1529 1528 1526 1525 1524 1523 1522 1520 1519 1518 1517 1515 1514 1513 1512 1511 1510 1508 1507 1505 1504 1503 1502 1500 1499 1497 1496 1495 1493 1491 1490 1488 1487 1485 1483 1482 1480 1480 1479 1477 1476 1475 1473 1472 1470 1468 1467 1465 1464 1462 1460 1458 1457 1455 1453 1452 1450 1448 1446 1444 1443 1441 1439 1437 1435
1532 1531 1530 1529 1528 1527 1526 1525 1523 1522 1521 1520 1518 1517 1516 1515 1513 1512 1511 1509 1508 1507 1505 1505 1503 1502 1500 1499 1498 1496 1495 1493 1492 1490 1489 1487 1485 1484 1482 1480 1479 1478 1477 1476 1475 1474 1472 1471 1469 1467 1466 1464 1463 1461 1459 1458 1456 1455 1453 1451 1450 1448 1446 1444 1442 1440 1439 1436 1435
1531 1530 1529 1528 1527 1526 1525 1524 1523 1521 1520 1519 1517 1516 1515 1513 1512 1511 1510 1508 1507 1505 1504 1503 1502 1500 1499 1498 1497 1495 1494 1492 1491 1489 1488 1486 1484 1483 1481 1479 1478 1477 1475 1475 1473 1472 1471 1470 1468 1466 1465 1464 1462 1460 1459 1457 1455 1454 1452 1450 1449 1447 1445 1444 1442 1440 1438 1436 1434
1530 1529 1528 1527 1526 1525 1524 1523 1522 1520 1519 1518 1516 1515 1514 1512 1511 1510 1508 1507 1506 1505 1503 1502 1500 1500 1498 1497 1495 1494 1493 1491 1490 1488 1487 1485 1483 1481 1480 1478 1477 1475 1474 1473 1472 1471 1470 1468 1467 1465 1464 1462 1461 1459 1458 1456 1455 1453 1451 1450 1448 1446 1445 1443 1441 1440 1438 1436 1434
1529 1528 1527 1526 1525 1524 1523 1522 1521 1520 1518 1517 1515 1514 1513 1511 1510 1509 1507 1506 1505 1503 1502 1500 1499 1498 1497 1496 1495 1493 1492 1490 1489 1487 1485 1484 1482 1480 1479 1477 1476 1475 1473 1472 1470 1470 1468 1467 1465 1464 1463 1461 1460 1458 1457 1455 1454 1452 1450 1449 1447 1445 1444 1442 1441 1439 1437 1435 1434
1528 1527 1526 1525 1524 1523 1522 1521 1520 1519 1517 1516 1515 1513 1512 1511 1509 1508 1506 1505 1504 1502 1501 1500 1498 1497 1496 1495 1493 1492 1491 1489 1488 1486 1484 1483 1481 1480 1478 1476 1475 1473 1472 1470 1469 1468 1467 1465 1464 1463 1461 1460 1459 1457 1456 1454 1453 1451 1450 1448 1446 1445 1444 1442 1440 1439 1437 1435 1433
1527 1526 1525 1524 1524 1522 1521 1520 1519 1518 1516 1515 1514 1512 1511 1510 1509 1507 1506 1504 1503 1501 1500 1499 1497 1496 1495 1494 1492 1491 1490 1488 1486 1485 1483 1481 1480 1479 1477 1475 1474 1472 1470 1469 1468 1467 1465 1464 1463 1461 1460 1458 1457 1456 1455 1453 1451 1450 1448 1447 1446 1445 1443 1442 1440 1438 1436 1435 1433
1526 1525 1525 1524 1523 1521 1520 1519 1518 1517 1515 1514 1513 1512 1510 1509 1508 1506 1505 1504 1502 1500 1499 1498 1496 1495 1494 1492 1491 1490 1488 1487 1485 1484 1482 1480 1479 1477 1476 1474 1473 1471 1470 1468 1467 1465 1464 1463 1461 1460 1459 1457 1456 1455 1453 1451 1450 1449 1448 1446 1445 1444 1442 1441 1439 1437 1436 1434 1432
1525 1525 1524 1523 1522 1521 1520 1518 1517 1516 1515 1513 1512 1511 1510 1508 1507 1505 1504 1503 1501 1500 1499 1497 1495 1494 1493 1491 1490 1489 1487 1485 1484 1482 1481 1480 1478 1476 1475 1473 1472 1470 1469 1467 1466 1464 1463 1461 1460 1460 1458 1456 1455 1453 1452 1450 1449 1448 1447 1445 1444 1443 1441 1440 1438 1437 1435 1433 1431
1525 1524 1523 1522 1521 1520 1519 1517 1516 1515 1514 1512 1511 1510 1509 1507 1506 1505 1503 1502 1500 1499 1498 1496 1495 1493 1492 1490 1489 1487 1485 1484 1483 1481 1480 1479 1477 1475 1474 1472 1471 1469 1468 1466 1465 1464 1462 1461 1460 1459 1457 1455 1453 1452 1451 1449 1448 1447 1446 1445 1443 1442 1440 1439 1438 1436 1434 1433 1431
1524 1523 1522 1521 1520 1519 1518 1516 1515 1514 1513 1512 1510 1509 1508 1507 1505 1504 1502 1501 1500 1498 1496 1495 1493 1492 1490 1489 1487 1486 1485 1483 1482 1480 1479 1477 1476 1475 1473 1471 1470 1468 1467 1465 1464 1463 1462 1462 1460 1459 1457 1454 1452 1451 1450 1448 1447 1446 1445 1444 1442 1441 1440 1438 1437 1435 1434 1432 1430
1523 1522 1521 1520 1519 1518 1517 1515 1515 1513 1512 1511 1510 1509 1507 1506 1505 1503 1501 1500 1499 1497 1495 1494 1492 1491 1489 1487 1486 1485 1483 1482 1481 1479 1478 1476 1475 1473 1472 1470 1469 1467 1466 1465 1464 1463 1462 1461 1460 1459 1457 1455 1452 1450 1448 1447 1446 1445 1444 1443 1441 1440 1439 1437 1436 1435 1433 1431 1430
1522 1521 1520 1519 1518 1517 1516 1515 1514 1513 1511 1510 1509 1508 1506 1505 1504 1502 1501 1499 1498 1496 1495 1493 1491 1490 1488 1486 1485 1484 1483 1481 1480 1478 1477 1475 1474 1472 1471 1470 1468 1466 1465 1464 1463 1462 1461 1460 1460 1458 1456 1455 1451 1449 1447 1446 1445 1445 1444 1442 1441 1440 1439 1437 1436 1434 1432 1431 1429
1521 1520 1519 1518 1517 1516 1515 1514 1513 1512 1511 1510 1508 1507 1506 1504 1503 1501 1500 1499 1497 1495 1494 1492 1490 1489 1487 1486 1485 1483 1482 1480 1479 1477 1476 1475 1473 1471 1470 1469 1467 1465 1464 1463 1462 1461 1460 1460 1459 1457 1456 1454 1451 1449 1447 1445 1445 1444 1443 1442 1440 1440 1438 1437 1435 1434 1432 1430 1428
1520 1519 1518 1517 1516 1515 1514 1513 1512 1511 1510 1509 1508 1506 1505 1504 1502 1501 1499 1498 1496 1495 1493 1491 1490 1488 1487 1485 1484 1483 1481 1480 1478 1477 1475 1474 1472 1470 1469 1468 1466 1465 1464 1462 1461 1460 1460 1459 1458 1456 1455 1452 1451 1448 1446 1445 1444 1443 1442 1441 1440 1439 1438 1437 1435 1433 1431 1430 1428
1519 1518 1517 1516 1515 1514 1513 1512 1511 1510 1509 1508 1507 1505 1504 1503 1501 1500 1498 1497 1495 1494 1493 1491 1490 1488 1486 1485 1484 1482 1480 1479 1477 1476 1474 1473 1471 1470 1468 1467 1465 1464 1463 1461 1460 1459 1459 1458 1457 1455 1454 1452 1450 1448 1445 1444 1443 1442 1441 1440 1440 1439 1437 1436 1435 1433 1431 1429 1428
1518 1517 1516 1515 1514 1514 1513 1512 1510 1510 1509 1507 1506 1505 1504 1502 1500 1499 1498 1496 1495 1494 1492 1491 1489 1488 1486 1485 1483 1481 1480 1478 1477 1475 1474 1472 1470 1469 1467 1466 1464 1463 1462 1461 1460 1459 1458 1457 1456 1454 1453 1451 1450 1447 1445 1443 1442 1441 1440 1439 1439 1438 1437 1435 1434 1432 1430 1429 1427
1517 1516 1515 1514 1513 1513 1512 1511 1510 1509 1508 1506 1505 1504 1503 1501 1500 1499 1497 1496 1495 1493 1491 1490 1488 1487 1485 1484 1482 1481 1479 1478 1476 1475 1473 1471 1470 1468 1466 1465 1464 1462 1461 1460 1459 1458 1457 1456 1455 1453 1452 1450 1449 1446 1444 1442 1440 1439 1439 1438 1437 1437 1436 1435 1433 1432 1430 1428 1427
1516 1515 1514 1513 1512 1512 1511 1510 1509 1508 1507 1506 1505 1503 1502 1500 1499 1498 1497 1495 1494 1492 1491 1489 1488 1486 1485 1483 1481 1480 1478 1477 1475 1474 1472 1471 1469 1468 1466 1465 1463 1462 1461 1460 1458 1457 1456 1455 1454 1452 1451 1449 1448 1445 1443 1441 1439 1438 1437 1437 1436 1436 1435 1434 1433 1431 1429 1428 1426
1515 1514 1513 1512 1511 1511 1510 1509 1508 1507 1506 1505 1504 1502 1501 1500 1499 1497 1496 1495 1493 1492 1490 1489 1487 1485 1484 1482 1481 1479 1478 1476 1475 1473 1472 1470 1469 1467 1466 1464 1463 1462 1460 1459 1458 1457 1455 1454 1453 1451 1450 1448 1446 1444 1442 1440 1439 1438 1437 1436 1435 1434 1433 1433 1431 1430 1428 1427 1425
1514 1513 1512 1511 1510 1510 1509 1508 1507 1506 1505 1504 1503 1501 1500 1499 1498 1496 1495 1494 1492 1491 1490 1488 1487 1485 1484 1482 1480 1479 1477 1475 1474 1473 1471 1470 1468 1467 1465 1464 1463 1461 1460 1459 1458 1456 1455 1453 1452 1451 1449 1448 1445 1443 1441 1440 1438 1437 1437 1436 1434 1433 1432 1431 1430 1429 1428 1426 1425
1513 1512 1511 1510 1510 1509 1508 1507 1506 1505 1504 1503 1502 1500 1499 1498 1497 1496 1495 1493 1492 1490 1489 1487 1486 1484 1483 1481 1480 1478 1477 1475 1474 1472 1471 1469 1468 1466 1465 1464 1463 1461 1460 1459 1457 1455 1454 1452 1451 1450 1449 1447 1445 1442 1440 1438 1437 1436 1436 1435 1434 1432 1431 1430 1429 1428 1427 1425 1424
1512 1511 1510 1509 1509 1508 1507 1506 1505 1504 1503 1502 1501 1500 1498 1497 1496 1495 1494 1492 1490 1489 1488 1486 1485 1484 1482 1480 1479 1478 1476 1475 1473 1472 1470 1469 1468 1466 1465 1464 1462 1461 1460 1458 1456 1455 1453 1451 1450 1449 1447 1445 1444 1442 1440 1438 1436 1435 1434 1433 1432 1431 1430 1429 1428 1427 1426 1425 1424
1510 1510 1509 1508 1508 1507 1506 1505 1504 1503 1502 1501 1500 1499 1498 1496 1495 1494 1493 1491 1490 1488 1487 1485 1484 1483 1481 1480 1478 1477 1475 1474 1473 1471 1470 1469 1467 1466 1465 1463 1462 1460 1459 1457 1455 1454 1452 1450 1449 1448 1446 1445 1443 1441 1439 1437 1436 1434 1433 1432 1431 1430 1429 1427 1427 1426 1425 1424 1423
1509 1509 1508 1507 1507 1506 1505 1505 1503 1502 1501 1500 1499 1498 1497 1496 1495 1493 1492 1490 1489 1488 1486 1485 1483 1482 1480 1479 1478 1476 1475 1474 1473 1471 1470 1468 1467 1466 1465 1463 1461 1460 1458 1456 1455 1453 1451 1450 1449 1447 1445 1444 1442 1440 1438 1437 1435 1434 1432 1430 1429 1428 1427 1426 1426 1425 1425 1423 1422
1508 1507 1507 1506 1506 1505 1504 1503 1502 1501 1500 1499 1498 1497 1496 1495 1494 1492 1491 1490 1489 1487 1486 1484 1483 1481 1480 1479 1477 1475 1474 1473 1472 1471 1470 1468 1467 1466 1465 1463 1461 1459 1457 1456 1454 1453 1451 1450 1449 1447 1445 1443 1442 1440 1438 1436 1434 1432 1431 1429 1428 1427 1426 1425 1425 1424 1423 1422 1421
1507 1506 1506 1505 1505 1504 1503 1502 1501 1500 1500 1498 1497 1496 1495 1494 1493 1492 1490 1489 1488 1487 1485 1484 1482 1481 1480 1478 1477 1475 1474 1473 1471 1470 1469 1468 1467 1465 1464 1462 1460 1459 1457 1455 1454 1453 1451 1450 1448 1447 1445 1443 1442 1440 1438 1435 1433 1431 1430 1429 1427 1426 1425 1424 1424 1423 1422 1421 1420